AEROCUBE 6A

Last updated on Sun Jul 06 2025 00:03:42 GMT+0000 (Coordinated Universal Time)

1 40045U 14033AM 25186.41099893 .00005815 00000+0 56038-3 0 9992 2 40045 97.6945 354.0961 0044394 94.2300 266.3995 14.92549323594791
UTC large
Height (km)
Speed (km/s)
/
Latitude / Longitude
Inclination (degrees)
Orbital Period (minutes)
Azimuth
Elevation
Range (km)
Doppler Factor

Next 0 passes for location: London (51.5072 / 0.1276)

Sorry there are no passes over London.